[[{"header":{"parameterUnit":"m.s-1","parameterCategory":2,"la1":30.2992,"la2":30.254,"lo1":-89.0895,"lo2":-89.0443,"dy":0.0025,"dx":0.0025,"nx":19,"ny":19,"refTime":"2026-05-14T21:00:00:Z","depth":"0","parameterNumber":2,"parameterNumberName":"U-component_of_CURRENTS"},"data":[0,0,0,0.1467,0.1468,0.1516,0.1517,0.162,0.1621,0,0,0,0,0,0,0,0,0,0,0,0.1446,0.1446,0.1467,0.1468,0.1516,0.1517,0.162,0.1621,0,0,0,0,0,0,0,0,0,0,0,0.1446,0.1446,0.1447,0.1469,0.1516,0.1517,0.1619,0.1572,0,0,0,0,0,0,0,0,0,0,0.1519,0.1487,0.1446,0.1447,0.1469,0.1516,0.1517,0.1569,0.1575,0.1611,0,0.1619,0,0.1628,0.1629,0.1629,0,0,0,0.1464,0.1482,0.1506,0.1447,0.1469,0.1516,0.1494,0.1572,0.1578,0.1619,0.162,0.1624,0.163,0.163,0.163,0.1771,0.1771,0,0,0.1462,0.1447,0.1501,0.151,0.1484,0.1492,0.1495,0.1575,0.1578,0.162,0.1626,0.1631,0.1631,0.1632,0.177,0.1771,0,0,0,0.1457,0.1445,0.1465,0.1506,0.1514,0.1494,0.1497,0.1574,0.1584,0.1627,0.1633,0.1631,0.1633,0.1769,0.177,0.1765,0,0,0,0.1455,0.1443,0.1464,0.1455,0.1513,0.1537,0.1494,0.1578,0.1587,0.1632,0.1631,0.1634,0.1769,0.177,0.1764,0.176,0,0,0,0.1444,0.1441,0.1449,0.1454,0.1478,0.1536,0.155,0.158,0.1591,0.163,0.1634,0.1768,0.177,0.1762,0.1758,0.177,0,0,0,0.1423,0.1438,0.1449,0.1473,0.1478,0.1539,0.1549,0.1596,0.163,0.1632,0.1769,0.177,0.1762,0.1757,0.1769,0.1703,0.1702,0,0,0.1432,0.1438,0.1456,0.1467,0.1519,0.1531,0.1593,0.1638,0.1666,0.1743,0.1746,0.1764,0.1758,0.177,0.1788,0.1783,0,0,0,0.1453,0.1463,0.1482,0.1514,0.1559,0.16,0.1644,0.1673,0.1736,0.1694,0.1796,0.1793,0.1799,0.1759,0.1757,0.1452,0.1777,0.1777,0.1777,0.1427,0.1465,0.1503,0.1555,0.1594,0.1658,0.1696,0.1748,0.177,0.1803,0.1812,0.1849,0.1807,0.1805,0.1492,0.184,0.184,0.184,0.184,0.1448,0.1477,0.1521,0.1571,0.1624,0.1677,0.1758,0.1778,0.1845,0.1849,0.1855,0.1785,0.1801,0.1469,0.184,0.184,0.184,0.184,0.184,0.1434,0.1459,0.149,0.1568,0.1624,0.1689,0.1741,0.1793,0.1841,0.1858,0.1818,0.1817,0.1503,0.186,0.186,0.186,0.186,0.186,0.186,0.1416,0.1454,0.1504,0.157,0.1615,0.1667,0.1735,0.1764,0.1794,0.1815,0.1815,0.1476,0.1855,0.1829,0.1861,0.1861,0.1861,0.1861,0.1861,0.1422,0.1444,0.1525,0.1572,0.1661,0.1672,0.1715,0.1714,0.1746,0.1745,0.1387,0.1795,0.1789,0.1791,0.1765,0.1777,0.1777,0.1777,0.1777,0.1426,0.1443,0.1568,0.1646,0.1699,0.1693,0.1634,0.1591,0.1404,0.1235,0.1179,0.1102,0.112,0.107,0.1087,0.1046,0.0876,0.0874,0.0872,0.1446,0.1494,0.158,0.1669,0.173,0.1689,0.1563,0.1323,0.0972,0.0804,0.0761,0.0799,0.0657,0.0709,0.0614,0.0663,0.0591,0,0]},{"header":{"parameterUnit":"m.s-1","parameterCategory":2,"la1":30.2992,"la2":30.254,"lo1":-89.0895,"lo2":-89.0443,"dy":0.0025,"dx":0.0025,"nx":19,"ny":19,"refTime":"2026-05-14T21:00:00:Z","depth":"0","parameterNumber":3,"parameterNumberName":"V-component_of_CURRENTS"},"data":[0,0,0,0.0264,0.0266,0.0329,0.0329,0.0422,0.0422,0,0,0,0,0,0,0,0,0,0,0,0.0247,0.0247,0.0264,0.0266,0.0329,0.0329,0.0421,0.0422,0,0,0,0,0,0,0,0,0,0,0,0.0247,0.0247,0.0248,0.0266,0.0329,0.0329,0.0421,0.0372,0,0,0,0,0,0,0,0,0,0,0.031,0.028,0.0247,0.0248,0.0266,0.0329,0.033,0.037,0.0375,0.0394,0,0.0404,0,0.0411,0.0428,0.0428,0,0,0,0.0273,0.0275,0.03,0.0248,0.0267,0.0329,0.0302,0.0373,0.0379,0.0401,0.0405,0.0408,0.0412,0.0429,0.0429,0.0538,0.0539,0,0,0.0269,0.0252,0.0296,0.0304,0.0284,0.03,0.0304,0.0377,0.0379,0.0405,0.041,0.0414,0.0429,0.043,0.0538,0.0538,0,0,0,0.0254,0.0249,0.0273,0.0301,0.0309,0.0302,0.0307,0.0376,0.0386,0.0411,0.0415,0.043,0.0431,0.0537,0.0538,0.0521,0,0,0,0.0253,0.0241,0.0271,0.0261,0.0307,0.0339,0.0304,0.0381,0.0389,0.0414,0.043,0.0432,0.0537,0.0538,0.052,0.0518,0,0,0,0.0244,0.0239,0.0249,0.026,0.0285,0.0338,0.0352,0.0383,0.0391,0.0428,0.0432,0.0536,0.0537,0.0519,0.0517,0.0614,0,0,0,0.0222,0.0241,0.0248,0.0274,0.0284,0.0341,0.0352,0.0394,0.0427,0.043,0.0537,0.0538,0.0519,0.0517,0.0612,0.0687,0.0703,0,0,0.0235,0.0242,0.0259,0.0268,0.0318,0.0333,0.0383,0.0425,0.0455,0.0513,0.0516,0.052,0.0517,0.0614,0.0763,0.0777,0,0,0,0.0258,0.0271,0.0289,0.0317,0.0356,0.0384,0.0425,0.0451,0.0508,0.0479,0.0552,0.0552,0.0613,0.0655,0.0666,0.0643,0.0544,0.0544,0.0544,0.0254,0.0281,0.0312,0.035,0.0379,0.0428,0.0464,0.0511,0.0528,0.0558,0.0561,0.0652,0.0695,0.0705,0.068,0.0585,0.0585,0.0585,0.0585,0.028,0.0299,0.0322,0.0359,0.0389,0.0425,0.0494,0.0517,0.0616,0.0589,0.065,0.0661,0.0716,0.0685,0.0584,0.0584,0.0584,0.0584,0.0584,0.0281,0.0293,0.0312,0.0347,0.0373,0.0411,0.0479,0.0528,0.0614,0.0658,0.0776,0.0777,0.0736,0.0712,0.0713,0.0713,0.0714,0.0714,0.0714,0.0273,0.0294,0.0302,0.0333,0.0341,0.0376,0.0479,0.0571,0.0725,0.0788,0.079,0.0776,0.0693,0.0672,0.0721,0.072,0.0719,0.0718,0.0718,0.0282,0.0276,0.0287,0.0293,0.0328,0.0397,0.0488,0.0725,0.0848,0.0956,0.0936,0.0887,0.0919,0.0911,0.0897,0.1001,0.1001,0.1001,0.1001,0.0268,0.0273,0.0272,0.028,0.032,0.0404,0.0624,0.0844,0.1022,0.108,0.1037,0.0989,0.0978,0.1009,0.0999,0.0985,0.111,0.111,0.111,0.0262,0.0261,0.0254,0.0269,0.0314,0.0445,0.0675,0.0922,0.1109,0.1107,0.0991,0.0986,0.0902,0.0888,0.0922,0.0909,0.0881,0,0]}],[{"header":{"parameterUnit":"m.s-1","parameterCategory":2,"la1":30.2992,"la2":30.254,"lo1":-89.0895,"lo2":-89.0443,"dy":0.0025,"dx":0.0025,"nx":19,"ny":19,"refTime":"2026-05-14T21:00:00:Z","depth":"2","parameterNumber":2,"parameterNumberName":"U-component_of_CURRENTS"},"data":[0,0,0,0.1001,0.1002,0.1045,0.1045,0.1175,0.1176,0,0,0,0,0,0,0,0,0,0,0,0.0989,0.0989,0.1001,0.1002,0.1045,0.1045,0.1175,0.1176,0,0,0,0,0,0,0,0,0,0,0,0.0989,0.0989,0.0989,0.1002,0.1045,0.1045,0.1174,0.1128,0,0,0,0,0,0,0,0,0,0,0.1079,0.1075,0.0989,0.0989,0.1002,0.1045,0.1045,0.1125,0.1131,0.117,0,0.1163,0,0.1165,0.1184,0.1185,0,0,0,0.1022,0.107,0.1052,0.0989,0.1002,0.1044,0.1031,0.1128,0.1135,0.1178,0.1165,0.1169,0.1167,0.1185,0.1186,0.1272,0.1272,0,0,0.1019,0.1032,0.1047,0.1056,0.0997,0.1029,0.1032,0.1131,0.1151,0.1165,0.1172,0.1169,0.1186,0.1187,0.1272,0.1272,0,0,0,0.0999,0.1031,0.101,0.1051,0.1048,0.103,0.1033,0.1147,0.1131,0.1173,0.1171,0.1187,0.1188,0.1272,0.1272,0.1269,0,0,0,0.0999,0.1017,0.1009,0.1022,0.1045,0.1094,0.1047,0.1124,0.1135,0.117,0.1187,0.119,0.1272,0.1272,0.1269,0.1275,0,0,0,0.099,0.1017,0.1009,0.1022,0.1027,0.1092,0.1084,0.1127,0.1133,0.1185,0.119,0.1272,0.1272,0.1269,0.1275,0.1329,0,0,0,0.102,0.1006,0.101,0.0998,0.1026,0.1041,0.1083,0.1122,0.1162,0.1188,0.1272,0.1272,0.1269,0.1275,0.1328,0.1212,0.1207,0,0,0.1011,0.1006,0.0993,0.0996,0.1009,0.1038,0.1066,0.1136,0.1177,0.1249,0.125,0.1269,0.1275,0.1329,0.121,0.1205,0,0,0,0.0995,0.0991,0.0996,0.1003,0.1015,0.1051,0.1101,0.1137,0.121,0.1196,0.1269,0.1274,0.1308,0.1235,0.1231,0.1272,0.1272,0.1272,0.1272,0.1017,0.1002,0.0999,0.0993,0.1017,0.107,0.1109,0.1167,0.1203,0.1232,0.1271,0.1309,0.1228,0.1225,0.1267,0.1267,0.1267,0.1267,0.1267,0.1002,0.0983,0.0995,0.0991,0.1023,0.1061,0.1132,0.117,0.1266,0.1268,0.1302,0.1234,0.122,0.1266,0.1266,0.1267,0.1267,0.1267,0.1267,0.1003,0.0989,0.0992,0.0992,0.1031,0.1071,0.1136,0.1206,0.1277,0.1311,0.1275,0.1274,0.133,0.1348,0.1348,0.1348,0.1349,0.1349,0.1349,0.1,0.0997,0.0996,0.1,0.1017,0.1067,0.1164,0.1221,0.1267,0.1272,0.1272,0.1337,0.1334,0.1336,0.1353,0.1352,0.1352,0.1351,0.1351,0.0973,0.0985,0.0985,0.0995,0.1027,0.1041,0.1129,0.1182,0.1253,0.1255,0.1256,0.1257,0.1258,0.1259,0.1259,0.1256,0.1256,0.1256,0.1256,0.0953,0.0957,0.0976,0.0998,0.1013,0.1036,0.1014,0.0959,0.1016,0.0934,0.0948,0.0863,0.0874,0.0851,0.0861,0.0852,0.0742,0.0741,0.074,0.0922,0.0943,0.0954,0.0989,0.101,0.1005,0.0901,0.0679,0.0542,0.0716,0.082,0.1229,0.1138,0.1143,0.1135,0.114,0.1138,0,0]},{"header":{"parameterUnit":"m.s-1","parameterCategory":2,"la1":30.2992,"la2":30.254,"lo1":-89.0895,"lo2":-89.0443,"dy":0.0025,"dx":0.0025,"nx":19,"ny":19,"refTime":"2026-05-14T21:00:00:Z","depth":"2","parameterNumber":3,"parameterNumberName":"V-component_of_CURRENTS"},"data":[0,0,0,-0.0068,-0.0068,-0.0047,-0.0047,-0.0037,-0.0037,0,0,0,0,0,0,0,0,0,0,0,-0.0079,-0.0079,-0.0068,-0.0068,-0.0047,-0.0047,-0.0037,-0.0037,0,0,0,0,0,0,0,0,0,0,0,-0.0079,-0.0079,-0.0078,-0.0068,-0.0047,-0.0047,-0.0037,-0.0049,0,0,0,0,0,0,0,0,0,0,-0.0067,-0.0071,-0.0079,-0.0078,-0.0068,-0.0047,-0.0047,-0.0049,-0.0048,-0.0051,0,-0.0048,0,-0.004,-0.0036,-0.0036,0,0,0,-0.0069,-0.0072,-0.0068,-0.0078,-0.0067,-0.0047,-0.0057,-0.0048,-0.0047,-0.0049,-0.0048,-0.0047,-0.004,-0.0036,-0.0036,-0.0014,-0.0014,0,0,-0.007,-0.0072,-0.0069,-0.0068,-0.0063,-0.0057,-0.0056,-0.0047,-0.0045,-0.0048,-0.0047,-0.004,-0.0036,-0.0036,-0.0014,-0.0014,0,0,0,-0.0073,-0.0073,-0.007,-0.0068,-0.0062,-0.0057,-0.0055,-0.0046,-0.0045,-0.0046,-0.004,-0.0036,-0.0036,-0.0014,-0.0014,0.0005,0,0,0,-0.0073,-0.0075,-0.007,-0.0071,-0.0062,-0.005,-0.0054,-0.0046,-0.0045,-0.004,-0.0036,-0.0036,-0.0014,-0.0014,0.0004,0.0006,0,0,0,-0.0079,-0.0075,-0.0074,-0.0072,-0.0062,-0.005,-0.0049,-0.0045,-0.0041,-0.0036,-0.0036,-0.0015,-0.0014,0.0003,0.0004,0.0089,0,0,0,-0.0081,-0.0078,-0.0074,-0.0064,-0.0062,-0.0044,-0.0049,-0.0037,-0.0032,-0.0036,-0.0014,-0.0014,0.0003,0.0003,0.0087,0.0267,0.0291,0,0,-0.0079,-0.0078,-0.0071,-0.0066,-0.0051,-0.0047,-0.0024,-0.0023,-0.0026,-0.0019,-0.0019,0.0004,0.0004,0.0088,0.0294,0.0318,0,0,0,-0.0071,-0.0068,-0.0061,-0.0051,-0.0037,-0.0022,-0.0015,-0.0006,0.0005,-0.002,0.0008,0.0008,0.0061,0.0165,0.0184,-0.0012,-0.0012,-0.0012,-0.0012,-0.007,-0.0062,-0.0052,-0.004,-0.0027,-0.0004,0.0018,0.0031,0.002,0.0031,0.0027,0.0104,0.0214,0.0231,0.0034,0.0034,0.0034,0.0034,0.0034,-0.0071,-0.0069,-0.0052,-0.0044,-0.0023,-0.0006,0.0036,0.0045,0.0099,0.0056,0.0108,0.0182,0.0253,0.0036,0.0035,0.0035,0.0035,0.0035,0.0035,-0.0079,-0.008,-0.0072,-0.006,-0.004,-0.0016,0.0044,0.0062,0.0111,0.015,0.0307,0.0308,0.0138,0.0189,0.019,0.019,0.019,0.0191,0.0191,-0.01,-0.0091,-0.009,-0.0078,-0.0065,-0.0034,0.0043,0.013,0.0288,0.0347,0.0349,0.0158,0.0153,0.0149,0.0197,0.0196,0.0195,0.0194,0.0194,-0.0121,-0.0117,-0.0111,-0.01,-0.0056,0.0044,0.0107,0.0385,0.0481,0.0621,0.0493,0.0484,0.0508,0.0495,0.05,0.0636,0.0636,0.0636,0.0636,-0.0137,-0.0135,-0.0113,-0.0081,-0.0021,0.0083,0.0373,0.0589,0.0725,0.0725,0.0719,0.0698,0.0681,0.071,0.0692,0.0698,0.0886,0.0886,0.0886,-0.015,-0.0137,-0.0114,-0.0069,0.0007,0.018,0.0512,0.0752,0.0802,0.0881,0.0611,0.0682,0.0639,0.0617,0.0648,0.0623,0.0628,0,0]}],[{"header":{"parameterUnit":"m.s-1","parameterCategory":2,"la1":30.2992,"la2":30.254,"lo1":-89.0895,"lo2":-89.0443,"dy":0.0025,"dx":0.0025,"nx":19,"ny":19,"refTime":"2026-05-14T21:00:00:Z","depth":"4","parameterNumber":2,"parameterNumberName":"U-component_of_CURRENTS"},"data":[0,0,0,0.0252,0.0252,0.0269,0.0269,0.0287,0.0287,0,0,0,0,0,0,0,0,0,0,0,0.0254,0.0254,0.0252,0.0252,0.0269,0.0269,0.0287,0.0287,0,0,0,0,0,0,0,0,0,0,0,0.0254,0.0254,0.0254,0.0252,0.0269,0.0269,0.0287,0.0277,0,0,0,0,0,0,0,0,0,0,0.0261,0.0265,0.0254,0.0254,0.0252,0.0269,0.0269,0.0276,0.0277,0.0276,0,0.0281,0,0.0277,0.0287,0.0287,0,0,0,0.0259,0.0264,0.0263,0.0254,0.0252,0.0269,0.0263,0.0277,0.0278,0.0277,0.0281,0.0281,0.0278,0.0287,0.0287,0.0277,0.0277,0,0,0.0258,0.0263,0.0262,0.0263,0.0259,0.0263,0.0264,0.0278,0.0283,0.0281,0.0282,0.0278,0.0287,0.0287,0.0277,0.0277,0,0,0,0.025,0.0262,0.0261,0.0263,0.0262,0.0263,0.0264,0.0283,0.0281,0.0282,0.0278,0.0287,0.0288,0.0277,0.0277,0.0263,0,0,0,0.025,0.0257,0.026,0.0264,0.0262,0.0274,0.0269,0.0281,0.0282,0.0278,0.0287,0.0288,0.0278,0.0277,0.0264,0.0249,0,0,0,0.0253,0.0257,0.0259,0.0264,0.0267,0.0273,0.0273,0.0281,0.0279,0.0287,0.0288,0.0278,0.0277,0.0264,0.025,0.0275,0,0,0,0.0257,0.0248,0.0259,0.0239,0.0266,0.0249,0.0273,0.0272,0.0277,0.0287,0.0278,0.0277,0.0264,0.0251,0.0275,0.0197,0,0,0,0.0241,0.0246,0.0228,0.0238,0.0202,0.0247,0.0223,0.0246,0.0271,0.0274,0.0274,0.0263,0.025,0.0275,0.0175,0,0,0,0,0.0218,0.0204,0.0194,0.0179,0.018,0.0181,0.0209,0.0231,0.0255,0.0271,0.0259,0.0251,0.0268,0.0222,0.0275,0.0275,0.0275,0.0276,0.0276,0.0198,0.0179,0.0136,0.0114,0.0114,0.0141,0.0152,0.0188,0.0222,0.0237,0.0237,0.024,0.0189,0.0239,0.0239,0.0239,0.0239,0.0239,0.0239,0.0134,0.0086,0.0081,0.0035,0.0047,0.0048,0.0094,0.0136,0.0192,0.0215,0.0233,0.0206,0.0237,0.0238,0.0238,0.0238,0.0238,0.0238,0.0238,0.0086,0.0056,0.0039,-0.002,-0.0029,-0.0004,0.0012,0.0089,0.0167,0.019,0.0186,0.0237,0.0243,0.0229,0.0229,0.0229,0.0229,0.0229,0.0229,0.0037,0.0013,-0.0043,-0.0082,-0.0109,-0.0098,-0.001,0.0024,0.0123,0.0155,0.021,0.0237,0.0237,0.0243,0.023,0.023,0.023,0.0229,0.0229,-0.0059,-0.0051,-0.0131,-0.017,-0.0218,-0.0196,-0.0118,-0.0019,0.004,0.007,0.014,0.0145,0.0148,0.0151,0.0154,0.0114,0.0113,0.0112,0,-0.012,-0.0125,-0.0219,-0.028,-0.0309,-0.0261,-0.02,-0.0126,-0.0012,0.0002,0.0033,0.0111,0.0115,0.0115,0.0116,0.0116,0,0,0,-0.0198,-0.0203,-0.0279,-0.0318,-0.0349,-0.0261,-0.0174,-0.0135,-0.0028,-0.0023,0.0086,0.0093,0.0088,0.0231,0.0248,0.0248,0.0259,0,0]},{"header":{"parameterUnit":"m.s-1","parameterCategory":2,"la1":30.2992,"la2":30.254,"lo1":-89.0895,"lo2":-89.0443,"dy":0.0025,"dx":0.0025,"nx":19,"ny":19,"refTime":"2026-05-14T21:00:00:Z","depth":"4","parameterNumber":3,"parameterNumberName":"V-component_of_CURRENTS"},"data":[0,0,0,-0.0002,-0.0002,0.002,0.002,0.0048,0.0048,0,0,0,0,0,0,0,0,0,0,0,-0.0012,-0.0012,-0.0003,-0.0002,0.002,0.002,0.0048,0.0048,0,0,0,0,0,0,0,0,0,0,0,-0.0012,-0.0012,-0.0011,-0.0002,0.002,0.002,0.0048,0.0031,0,0,0,0,0,0,0,0,0,0,0.0009,-0.0003,-0.0012,-0.0011,-0.0002,0.002,0.002,0.003,0.0032,0.0038,0,0.0042,0,0.0048,0.005,0.005,0,0,0,-0.0003,-0.0005,0.0007,-0.0011,-0.0001,0.002,0.001,0.0031,0.0033,0.0041,0.0043,0.0044,0.0048,0.005,0.0051,0.0115,0.0115,0,0,-0.0005,-0.0013,0.0005,0.0008,0.0005,0.0009,0.0011,0.0033,0.0032,0.0043,0.0044,0.0048,0.0051,0.0051,0.0115,0.0115,0,0,0,-0.0007,-0.0014,-0.0003,0.0007,0.0012,0.001,0.0011,0.0031,0.0036,0.0045,0.0049,0.0051,0.0051,0.0114,0.0115,0.0171,0,0,0,-0.0008,-0.0015,-0.0003,-0.0009,0.0011,0.0021,0.0009,0.0034,0.0037,0.0049,0.0051,0.0051,0.0113,0.0114,0.0168,0.0205,0,0,0,-0.0013,-0.0015,-0.0011,-0.0009,0.0002,0.002,0.0026,0.0035,0.004,0.005,0.0052,0.0113,0.0114,0.0166,0.02,0.0219,0,0,0,-0.0024,-0.0012,-0.0012,0.0007,0.0002,0.0039,0.0026,0.0047,0.0058,0.0051,0.0114,0.0115,0.0165,0.0198,0.0216,0.0159,0,0,0,-0.0013,-0.0011,0.0003,0.0005,0.0047,0.0036,0.0088,0.0091,0.0079,0.0105,0.0106,0.0169,0.02,0.0218,0.0227,0,0,0,0,0.0005,0.0016,0.0029,0.0053,0.0075,0.0114,0.0114,0.0124,0.015,0.0091,0.0177,0.0195,0.0204,0.0164,0.012,0.012,0.012,0.012,0.012,0.0009,0.0033,0.0069,0.0103,0.0132,0.017,0.0202,0.0218,0.0193,0.0214,0.0246,0.0308,0.0268,0.0245,0.0245,0.0245,0.0245,0.0246,0.0246,0.0038,0.0065,0.0107,0.015,0.0199,0.0247,0.03,0.0299,0.0342,0.0309,0.0314,0.0233,0.0251,0.025,0.0249,0.0249,0.0248,0.0248,0.0248,0.004,0.006,0.009,0.0168,0.0254,0.0312,0.0401,0.0424,0.04,0.0423,0.0356,0.0347,0.0335,0.0414,0.0415,0.0415,0.0415,0.0415,0.0416,0.003,0.0065,0.0118,0.0202,0.0273,0.0372,0.0466,0.0476,0.0461,0.0427,0.0437,0.0365,0.0359,0.0345,0.042,0.0419,0.0418,0.0418,0.0418,0.0051,0.0063,0.0136,0.0203,0.0359,0.0423,0.0514,0.0499,0.0502,0.0448,0.0417,0.0416,0.0389,0.0383,0.0368,0.0452,0.0452,0.0451,0,0.0067,0.0077,0.0181,0.0285,0.0389,0.0468,0.0482,0.048,0.0435,0.0434,0.0462,0.0429,0.0427,0.0395,0.0389,0.0372,0,0,0,0.0106,0.0121,0.0204,0.0293,0.0411,0.0446,0.0485,0.0463,0.047,0.0413,0.044,0.0443,0.0399,0.0432,0.0387,0.038,0.0355,0,0]}]]